TimeMDT,TemperatureF,Dew PointF,Humidity,Sea Level PressureIn,VisibilityMPH,Wind Direction,Wind SpeedMPH,Gust SpeedMPH,PrecipitationIn,Events,Conditions,WindDirDegrees,DateUTC
12:53 AM,44.1,37.9,79,29.58,3.0,WNW,34.5,58.7,0.02,Rain,Rain,300,2012-10-17 06:53:00
1:53 AM,42.1,37.0,82,29.61,10.0,WNW,41.4,54.1,0.04,Rain,Light Rain,290,2012-10-17 07:53:00
2:53 AM,43.0,36.0,76,29.62,10.0,West,31.1,44.9,0.00,,Overcast,280,2012-10-17 08:53:00
3:53 AM,44.1,35.1,71,29.65,10.0,WNW,29.9,40.3,N/A,,Mostly Cloudy,290,2012-10-17 09:53:00
4:53 AM,44.1,34.0,68,29.69,10.0,WNW,24.2,36.8,N/A,,Clear,290,2012-10-17 10:53:00
5:53 AM,44.1,30.9,60,29.72,10.0,WNW,24.2,32.2,N/A,,Scattered Clouds,290,2012-10-17 11:53:00
6:53 AM,42.1,30.0,62,29.72,10.0,WNW,21.9,31.1,N/A,,Clear,290,2012-10-17 12:53:00
7:53 AM,42.1,28.9,60,29.75,10.0,WNW,25.3,32.2,N/A,,Clear,290,2012-10-17 13:53:00
8:53 AM,44.1,28.9,55,29.77,10.0,WNW,25.3,32.2,N/A,,Clear,290,2012-10-17 14:53:00
9:53 AM,46.9,28.0,48,29.78,10.0,WNW,31.1,40.3,N/A,,Clear,300,2012-10-17 15:53:00
10:53 AM,50.0,27.0,41,29.78,10.0,WNW,29.9,42.6,N/A,,Clear,300,2012-10-17 16:53:00
11:53 AM,51.1,24.1,35,29.78,10.0,NW,29.9,39.1,N/A,,Clear,310,2012-10-17 17:53:00
12:53 PM,52.0,23.0,32,29.79,10.0,NW,32.2,46.0,N/A,,Partly Cloudy,310,2012-10-17 18:53:00
1:53 PM,51.1,18.0,27,29.81,10.0,NW,32.2,49.5,N/A,,Partly Cloudy,310,2012-10-17 19:53:00
2:53 PM,52.0,19.9,28,29.81,10.0,NW,36.8,47.2,N/A,,Partly Cloudy,320,2012-10-17 20:53:00
3:53 PM,50.0,19.9,31,29.83,10.0,WNW,28.8,43.7,N/A,,Clear,300,2012-10-17 21:53:00
4:53 PM,48.9,19.9,32,29.84,10.0,WNW,33.4,40.3,N/A,,Clear,300,2012-10-17 22:53:00
5:53 PM,46.9,19.0,33,29.87,10.0,NW,27.6,41.4,N/A,,Clear,310,2012-10-17 23:53:00
6:53 PM,45.0,19.9,37,29.90,10.0,WNW,23.0,33.4,N/A,,Partly Cloudy,300,2012-10-18 00:53:00
7:53 PM,43.0,19.9,40,29.93,10.0,WNW,20.7,-,N/A,,Clear,290,2012-10-18 01:53:00
8:53 PM,43.0,19.0,38,29.94,10.0,WNW,24.2,33.4,N/A,,Clear,300,2012-10-18 02:53:00
9:53 PM,43.0,18.0,37,29.96,10.0,WNW,24.2,32.2,N/A,,Clear,300,2012-10-18 03:53:00
10:53 PM,41.0,18.0,40,29.97,10.0,WNW,20.7,28.8,N/A,,Clear,300,2012-10-18 04:53:00
11:53 PM,39.0,18.0,43,29.98,10.0,WNW,19.6,-,N/A,,Clear,290,2012-10-18 05:53:00